Flag for Bahrain Weather past 2 weeks in Manama, Bahrain

Now
100 °F

Sunny.


Feels Like: 105 °F
Forecast: 91 / 100 °F
Wind: 26 mph from Northwest

Location: Bahrain International Airport

Current Time: Jul 7, 2015 at 2:12:28 PM

Latest Report: Jul 7, 2015 at 1:00 PM


Visibility: 4 mi

Pressure: 29.45 "Hg

Humidity: 33%

Dew point: 66 °F

Location of ManamaLocation

Historic Weather in Manama — Graph

°F

Manama temperature yesterday

Maximum temperature yesterday: 102 °F (at 11:00 AM)
Minimum temperature yesterday: 93 °F (at 2:00 AM)
Average temperature yesterday: 98 °F

Past Weeks' High & Low Weather Summary

 TemperatureHumidityPressure
High102 °F (Jun 24, 11:00 AM)89% (Jul 4, 8:00 PM)29.65 "Hg (Jul 4, 8:00 PM)
Low86 °F (Jul 4, 5:00 AM)14% (Jun 24, 12:00 AM)29.45 "Hg (Jun 23, 12:00 AM)
Average95 °F41%29.54 "Hg
* Reported Jun 22 1:00 PM — Jul 7 1:00 PM, Manama, Weather by CustomWeather, © 2015

Note: Actual official high and low records may vary slightly from our data, if they occured in-between our weather recording intervals... More about our weather records

Advertising

Manama weather history for previous 24 hours

 ConditionsComfort  
Time TempWeatherWind HumidityBarometerVisibility
1:00 PM
Tue, Jul 7
100 °FSunny.26 mph33%29.45 "Hg4 mi
12:00 PM100 °FSunny.28 mph31%29.45 "Hg4 mi
11:00 AM100 °FSunny.29 mph33%29.47 "Hg4 mi
10:00 AM99 °FSunny.28 mph35%29.47 "Hg4 mi
9:30 AM99 °FSunny.25 mph35%29.47 "Hg4 mi
8:00 AM97 °FSunny.24 mph39%29.47 "Hg4 mi
7:00 AM95 °FSunny.24 mph44%29.47 "Hg4 mi
6:00 AM91 °FSunny.20 mph56%29.47 "Hg2 mi
5:00 AM91 °FSunny.23 mph52%29.45 "Hg2 mi
4:00 AM93 °FClear.24 mph49%29.45 "Hg2 mi
3:00 AM93 °FClear.23 mph47%29.45 "Hg2 mi
2:00 AM93 °FClear.23 mph49%29.45 "Hg2 mi
1:00 AM95 °FClear.23 mph44%29.45 "Hg2 mi
12:00 AM95 °FClear.23 mph44%29.47 "Hg3 mi
11:30 PM
Mon, Jul 6
95 °FClear.22 mph47%29.47 "Hg3 mi
11:00 PM97 °FClear.21 mph44%29.47 "Hg3 mi
10:00 PM97 °FClear.18 mph42%29.47 "Hg3 mi
9:00 PM97 °FClear.16 mph39%29.47 "Hg3 mi
8:00 PM97 °FClear.16 mph39%29.47 "Hg3 mi
7:00 PM99 °FClear.18 mph35%29.45 "Hg3 mi
6:00 PM102 °FSunny.22 mph23%29.45 "Hg4 mi
5:30 PM102 °FSunny.23 mph23%29.45 "Hg5 mi
5:00 PM102 °FSunny.23 mph27%29.45 "Hg10 mi
4:00 PM102 °FSunny.24 mph26%29.47 "Hg10 mi
3:00 PM102 °FSunny.25 mph29%29.47 "Hg10 mi
2:00 PM102 °FSunny.29 mph29%29.50 "Hg10 mi
Weather by CustomWeather, © 2015

See weather overviewHow to use our weather pages